"Period start","avg(HW err(1)/warn(2) (#))","avg(Visibility (m))","avg(Weather code (#))","avg(Precip intensity (mm/h))","min(HW err(1)/warn(2) (#))","max(HW err(1)/warn(2) (#))","std(HW err(1)/warn(2) (#))","med(HW err(1)/warn(2) (#))","min(Visibility (m))","max(Visibility (m))","std(Visibility (m))","med(Visibility (m))","min(Weather code (#))","max(Weather code (#))","std(Weather code (#))","med(Weather code (#))","min(Precip intensity (mm/h))","max(Precip intensity (mm/h))","std(Precip intensity (mm/h))","med(Precip intensity (mm/h))"
2014-08-20 00:00:00,0,7198,4,0.00,0,0,0,0,6977,7464,152,7182,4,4,0,4,0.00,0.00,0.00,0.00
2014-08-20 00:10:00,0,7163,6,0.00,0,0,0,0,6841,7357,136,7184,4,10,3,4,0.00,0.00,0.00,0.00
2014-08-20 00:20:00,0,6875,36,2.97,0,0,0,0,5828,7387,507,7074,10,62,26,36,0.00,14.45,4.54,0.22
2014-08-20 00:30:00,0,7166,41,0.15,0,0,0,0,6771,7512,227,7161,10,61,25,61,0.00,1.00,0.30,0.00
2014-08-20 00:40:00,0,7145,10,0.00,0,0,0,0,7025,7316,96,7119,10,10,0,10,0.00,0.00,0.00,0.00
2014-08-20 00:50:00,0,7153,10,0.00,0,0,0,0,6862,7344,125,7146,10,10,0,10,0.00,0.00,0.00,0.00
2014-08-20 01:00:00,0,7304,10,0.00,0,0,0,0,7172,7491,86,7294,10,10,0,10,0.00,0.00,0.00,0.00
2014-08-20 01:10:00,0,7349,10,0.00,0,0,0,0,7238,7606,105,7346,10,10,0,10,0.00,0.00,0.00,0.00
2014-08-20 01:20:00,0,7402,10,0.00,0,0,0,0,7041,7734,211,7420,10,10,0,10,0.00,0.00,0.00,0.00
2014-08-20 01:30:00,0,7245,10,0.00,0,0,0,0,7004,7768,208,7246,10,10,0,10,0.00,0.00,0.00,0.00
2014-08-20 01:40:00,0,7364,10,0.00,0,0,0,0,7053,7698,216,7374,10,10,0,10,0.00,0.00,0.00,0.00
2014-08-20 01:50:00,0,7529,10,0.00,0,0,0,0,7264,7858,213,7510,10,10,0,10,0.00,0.00,0.00,0.00
2014-08-20 02:00:00,0,7770,10,0.00,0,0,0,0,7300,8106,225,7718,10,10,0,10,0.00,0.00,0.00,0.00
2014-08-20 02:10:00,0,7994,10,0.00,0,0,0,0,7622,8652,302,8007,10,10,0,10,0.00,0.00,0.00,0.00
2014-08-20 02:20:00,0,8154,10,0.00,0,0,0,0,7794,8416,186,8202,10,10,0,10,0.00,0.00,0.00,0.00
2014-08-20 02:30:00,0,8264,10,0.00,0,0,0,0,7877,8701,259,8284,10,10,0,10,0.00,0.00,0.00,0.00
2014-08-20 02:40:00,0,8556,10,0.00,0,0,0,0,8271,9063,197,8530,10,10,0,10,0.00,0.00,0.00,0.00
2014-08-20 02:50:00,0,8959,10,0.00,0,0,0,0,8605,9235,192,8924,10,10,0,10,0.00,0.00,0.00,0.00
2014-08-20 03:00:00,0,9194,10,0.00,0,0,0,0,8942,9538,202,9133,10,10,0,10,0.00,0.00,0.00,0.00
2014-08-20 03:10:00,0,9054,10,0.00,0,0,0,0,8484,9370,245,9110,10,10,0,10,0.00,0.00,0.00,0.00
2014-08-20 03:20:00,0,9346,10,0.00,0,0,0,0,8985,9949,293,9298,10,10,0,10,0.00,0.00,0.00,0.00
2014-08-20 03:30:00,0,9500,10,0.00,0,0,0,0,8745,9980,375,9623,10,10,0,10,0.00,0.00,0.00,0.00
2014-08-20 03:40:00,0,10367,10,0.00,0,0,0,0,9880,11246,405,10332,10,10,0,10,0.00,0.00,0.00,0.00
2014-08-20 03:50:00,0,10610,10,0.00,0,0,0,0,8434,11154,761,10840,10,10,0,10,0.00,0.00,0.00,0.00
2014-08-20 04:00:00,0,10512,10,0.00,0,0,0,0,10314,10795,172,10440,10,10,0,10,0.00,0.00,0.00,0.00
2014-08-20 04:10:00,0,10443,10,0.00,0,0,0,0,9230,11371,516,10486,10,10,0,10,0.00,0.00,0.00,0.00
2014-08-20 04:20:00,0,10044,10,0.00,0,0,0,0,9208,11057,614,9977,10,10,0,10,0.00,0.00,0.00,0.00
2014-08-20 04:30:00,0,8890,10,0.00,0,0,0,0,8218,9817,393,8844,10,10,0,10,0.00,0.00,0.00,0.00
2014-08-20 04:40:00,0,8717,10,0.00,0,0,0,0,8303,9004,226,8656,10,10,0,10,0.00,0.00,0.00,0.00
2014-08-20 04:50:00,0,8796,10,0.00,0,0,0,0,8192,9127,272,8800,10,10,0,10,0.00,0.00,0.00,0.00
2014-08-20 05:00:00,0,9014,4,0.00,0,0,0,0,8502,9414,292,9061,4,4,0,4,0.00,0.00,0.00,0.00
2014-08-20 05:10:00,0,8617,4,0.00,0,0,0,0,8181,9090,281,8618,4,4,0,4,0.00,0.00,0.00,0.00
2014-08-20 05:20:00,0,8560,4,0.00,0,0,0,0,8295,9088,268,8446,4,4,0,4,0.00,0.00,0.00,0.00
2014-08-20 05:30:00,0,8371,4,0.00,0,0,0,0,8042,8602,186,8392,4,4,0,4,0.00,0.00,0.00,0.00
2014-08-20 05:40:00,0,8442,4,0.00,0,0,0,0,8158,8706,165,8473,4,4,0,4,0.00,0.00,0.00,0.00
2014-08-20 05:50:00,0,8410,4,0.00,0,0,0,0,8116,8674,175,8452,4,4,0,4,0.00,0.00,0.00,0.00
2014-08-20 06:00:00,0,8553,4,0.00,0,0,0,0,8162,8859,238,8584,4,4,0,4,0.00,0.00,0.00,0.00
2014-08-20 06:10:00,0,8252,4,0.00,0,0,0,0,7748,8609,275,8310,4,4,0,4,0.00,0.00,0.00,0.00
2014-08-20 06:20:00,0,7605,4,0.00,0,0,0,0,7240,7955,255,7556,4,4,0,4,0.00,0.00,0.00,0.00
2014-08-20 06:30:00,0,7243,4,0.00,0,0,0,0,6996,7510,138,7218,4,4,0,4,0.00,0.00,0.00,0.00
2014-08-20 06:40:00,0,6991,5,0.00,0,0,0,0,6348,7364,289,7042,4,10,2,4,0.00,0.00,0.00,0.00
2014-08-20 06:50:00,0,6265,10,0.00,0,0,0,0,6014,6505,159,6200,10,10,0,10,0.00,0.00,0.00,0.00
2014-08-20 07:00:00,0,5935,10,0.00,0,0,0,0,5800,6139,96,5922,10,10,0,10,0.00,0.00,0.00,0.00
2014-08-20 07:10:00,0,5795,10,0.00,0,0,0,0,5648,5989,104,5816,10,10,0,10,0.00,0.00,0.00,0.00
2014-08-20 07:20:00,0,5610,10,0.00,0,0,0,0,5492,5788,85,5605,10,10,0,10,0.00,0.00,0.00,0.00
2014-08-20 07:30:00,0,5561,10,0.00,0,0,0,0,5463,5715,81,5530,10,10,0,10,0.00,0.00,0.00,0.00
2014-08-20 07:40:00,0,5591,10,0.00,0,0,0,0,5468,5716,80,5588,10,10,0,10,0.00,0.00,0.00,0.00
2014-08-20 07:50:00,0,5605,10,0.00,0,0,0,0,5447,5760,106,5630,10,10,0,10,0.00,0.00,0.00,0.00
2014-08-20 08:00:00,0,5568,10,0.00,0,0,0,0,5394,5723,104,5597,10,10,0,10,0.00,0.00,0.00,0.00
2014-08-20 08:10:00,0,5722,10,0.00,0,0,0,0,5583,5877,94,5724,10,10,0,10,0.00,0.00,0.00,0.00
2014-08-20 08:20:00,0,5822,10,0.00,0,0,0,0,5738,5923,60,5820,10,10,0,10,0.00,0.00,0.00,0.00
2014-08-20 08:30:00,0,5890,10,0.00,0,0,0,0,5735,6108,123,5858,10,10,0,10,0.00,0.00,0.00,0.00
2014-08-20 08:40:00,0,6082,10,0.00,0,0,0,0,6041,6176,39,6072,10,10,0,10,0.00,0.00,0.00,0.00
2014-08-20 08:50:00,0,6235,10,0.00,0,0,0,0,5949,6438,126,6232,10,10,0,10,0.00,0.00,0.00,0.00
2014-08-20 09:00:00,0,6320,10,0.00,0,0,0,0,6241,6432,53,6321,10,10,0,10,0.00,0.00,0.00,0.00
2014-08-20 09:10:00,0,6358,10,0.00,0,0,0,0,6152,6547,107,6367,10,10,0,10,0.00,0.00,0.00,0.00
2014-08-20 09:20:00,0,6176,10,0.00,0,0,0,0,6042,6362,89,6167,10,10,0,10,0.00,0.00,0.00,0.00
2014-08-20 09:30:00,0,6200,10,0.00,0,0,0,0,6116,6301,63,6201,10,10,0,10,0.00,0.00,0.00,0.00
2014-08-20 09:40:00,0,5982,10,0.00,0,0,0,0,5788,6189,116,6004,10,10,0,10,0.00,0.00,0.00,0.00
2014-08-20 09:50:00,0,5827,10,0.00,0,0,0,0,5599,5913,89,5848,10,10,0,10,0.00,0.00,0.00,0.00
2014-08-20 10:00:00,0,5642,10,0.00,0,0,0,0,5523,5767,76,5626,10,10,0,10,0.00,0.00,0.00,0.00
2014-08-20 10:10:00,0,5582,10,0.00,0,0,0,0,5475,5672,63,5588,10,10,0,10,0.00,0.00,0.00,0.00
2014-08-20 10:20:00,0,5507,10,0.00,0,0,0,0,5372,5602,72,5520,10,10,0,10,0.00,0.00,0.00,0.00
2014-08-20 10:30:00,0,5370,10,0.00,0,0,0,0,5227,5533,91,5370,10,10,0,10,0.00,0.00,0.00,0.00
2014-08-20 10:40:00,0,5311,10,0.00,0,0,0,0,5239,5384,49,5322,10,10,0,10,0.00,0.00,0.00,0.00
2014-08-20 10:50:00,0,5371,10,0.00,0,0,0,0,5255,5497,85,5390,10,10,0,10,0.00,0.00,0.00,0.00
2014-08-20 11:00:00,0,5394,10,0.00,0,0,0,0,5238,5573,80,5399,10,10,0,10,0.00,0.00,0.00,0.00
2014-08-20 11:10:00,0,5373,10,0.00,0,0,0,0,5256,5472,69,5393,10,10,0,10,0.00,0.00,0.00,0.00
2014-08-20 11:20:00,0,5344,10,0.00,0,0,0,0,5260,5425,48,5339,10,10,0,10,0.00,0.00,0.00,0.00
2014-08-20 11:30:00,0,5345,10,0.00,0,0,0,0,5194,5438,67,5352,10,10,0,10,0.00,0.00,0.00,0.00
2014-08-20 11:40:00,0,5284,10,0.00,0,0,0,0,5182,5375,63,5286,10,10,0,10,0.00,0.00,0.00,0.00
2014-08-20 11:50:00,0,5360,10,0.00,0,0,0,0,5236,5524,92,5335,10,10,0,10,0.00,0.00,0.00,0.00
2014-08-20 12:00:00,0,5319,10,0.00,0,0,0,0,5219,5487,88,5294,10,10,0,10,0.00,0.00,0.00,0.00
2014-08-20 12:10:00,0,5237,10,0.00,0,0,0,0,5172,5326,49,5218,10,10,0,10,0.00,0.00,0.00,0.00
2014-08-20 12:20:00,0,5353,10,0.00,0,0,0,0,5267,5497,72,5344,10,10,0,10,0.00,0.00,0.00,0.00
2014-08-20 12:30:00,0,5378,10,0.00,0,0,0,0,5292,5518,68,5362,10,10,0,10,0.00,0.00,0.00,0.00
2014-08-20 12:40:00,0,5392,10,0.00,0,0,0,0,5125,5481,100,5416,10,10,0,10,0.00,0.00,0.00,0.00
2014-08-20 12:50:00,0,5296,10,0.00,0,0,0,0,5163,5408,84,5314,10,10,0,10,0.00,0.00,0.00,0.00
2014-08-20 13:00:00,0,5209,10,0.00,0,0,0,0,5104,5299,59,5216,10,10,0,10,0.00,0.00,0.00,0.00
2014-08-20 13:10:00,0,5214,10,0.00,0,0,0,0,5142,5304,52,5218,10,10,0,10,0.00,0.00,0.00,0.00
2014-08-20 13:20:00,0,5253,10,0.00,0,0,0,0,5155,5363,78,5256,10,10,0,10,0.00,0.00,0.00,0.00
2014-08-20 13:30:00,0,5122,10,0.00,0,0,0,0,5005,5237,71,5122,10,10,0,10,0.00,0.00,0.00,0.00
2014-08-20 13:40:00,0,5169,10,0.00,0,0,0,0,5079,5321,70,5166,10,10,0,10,0.00,0.00,0.00,0.00
2014-08-20 13:50:00,0,5082,10,0.00,0,0,0,0,5001,5187,55,5069,10,10,0,10,0.00,0.00,0.00,0.00
2014-08-20 14:00:00,0,5046,10,0.00,0,0,0,0,4901,5144,59,5055,10,10,0,10,0.00,0.00,0.00,0.00
2014-08-20 14:10:00,0,5181,10,0.00,0,0,0,0,5045,5369,98,5182,10,10,0,10,0.00,0.00,0.00,0.00
2014-08-20 14:20:00,0,5383,10,0.00,0,0,0,0,5228,5493,88,5378,10,10,0,10,0.00,0.00,0.00,0.00
2014-08-20 14:30:00,0,5442,10,0.00,0,0,0,0,5343,5496,45,5444,10,10,0,10,0.00,0.00,0.00,0.00
2014-08-20 14:40:00,0,5367,10,0.00,0,0,0,0,5238,5495,90,5368,10,10,0,10,0.00,0.00,0.00,0.00
2014-08-20 14:50:00,0,5424,10,0.00,0,0,0,0,5234,5583,101,5440,10,10,0,10,0.00,0.00,0.00,0.00
2014-08-20 15:00:00,0,5490,10,0.00,0,0,0,0,5268,5728,144,5470,10,10,0,10,0.00,0.00,0.00,0.00
2014-08-20 15:10:00,0,5591,10,0.00,0,0,0,0,5369,5755,115,5552,10,10,0,10,0.00,0.00,0.00,0.00
2014-08-20 15:20:00,0,5756,10,0.00,0,0,0,0,5608,5925,119,5734,10,10,0,10,0.00,0.00,0.00,0.00
2014-08-20 15:30:00,0,5855,10,0.00,0,0,0,0,5711,6009,104,5863,10,10,0,10,0.00,0.00,0.00,0.00
2014-08-20 15:40:00,0,6016,10,0.00,0,0,0,0,5740,6445,198,6012,10,10,0,10,0.00,0.00,0.00,0.00
2014-08-20 15:50:00,0,6625,10,0.00,0,0,0,0,6238,6940,251,6636,10,10,0,10,0.00,0.00,0.00,0.00
2014-08-20 16:00:00,0,7219,10,0.00,0,0,0,0,6608,7674,283,7312,10,10,0,10,0.00,0.00,0.00,0.00
2014-08-20 16:10:00,0,7628,10,0.00,0,0,0,0,7428,7766,112,7652,10,10,0,10,0.00,0.00,0.00,0.00
2014-08-20 16:20:00,0,7655,10,0.00,0,0,0,0,7344,7888,142,7668,10,10,0,10,0.00,0.00,0.00,0.00
2014-08-20 16:30:00,0,7842,10,0.00,0,0,0,0,7636,8000,116,7846,10,10,0,10,0.00,0.00,0.00,0.00
2014-08-20 16:40:00,0,7581,10,0.00,0,0,0,0,7347,7951,179,7532,10,10,0,10,0.00,0.00,0.00,0.00
2014-08-20 16:50:00,0,8039,10,0.00,0,0,0,0,7711,8275,167,8027,10,10,0,10,0.00,0.00,0.00,0.00
2014-08-20 17:00:00,0,7792,10,0.00,0,0,0,0,7195,8066,317,7920,10,10,0,10,0.00,0.00,0.00,0.00
2014-08-20 17:10:00,0,8397,10,0.00,0,0,0,0,8123,8615,121,8382,10,10,0,10,0.00,0.00,0.00,0.00
2014-08-20 17:20:00,0,8571,10,0.00,0,0,0,0,8276,9030,206,8574,10,10,0,10,0.00,0.00,0.00,0.00
2014-08-20 17:30:00,0,8807,10,0.00,0,0,0,0,8702,9119,117,8764,10,10,0,10,0.00,0.00,0.00,0.00
2014-08-20 17:40:00,0,8643,10,0.00,0,0,0,0,8444,8979,153,8608,10,10,0,10,0.00,0.00,0.00,0.00
2014-08-20 17:50:00,0,8594,10,0.00,0,0,0,0,8393,8834,143,8591,10,10,0,10,0.00,0.00,0.00,0.00
2014-08-20 18:00:00,0,8708,10,0.00,0,0,0,0,8431,9027,182,8698,10,10,0,10,0.00,0.00,0.00,0.00
2014-08-20 18:10:00,0,8682,10,0.00,0,0,0,0,8367,9072,225,8668,10,10,0,10,0.00,0.00,0.00,0.00
2014-08-20 18:20:00,0,8956,10,0.00,0,0,0,0,8251,9503,366,8982,10,10,0,10,0.00,0.00,0.00,0.00
2014-08-20 18:30:00,0,9140,10,0.00,0,0,0,0,8897,9354,139,9152,10,10,0,10,0.00,0.00,0.00,0.00
2014-08-20 18:40:00,0,9696,10,0.00,0,0,0,0,9275,10058,250,9703,10,10,0,10,0.00,0.00,0.00,0.00
2014-08-20 18:50:00,0,9722,10,0.00,0,0,0,0,9208,10180,320,9748,10,10,0,10,0.00,0.00,0.00,0.00
2014-08-20 19:00:00,0,8863,20,0.52,0,0,0,0,7988,9427,505,9077,10,61,20,10,0.00,4.20,1.26,0.00
2014-08-20 19:10:00,0,7106,61,6.87,0,0,0,0,6713,7571,305,7016,61,62,0,61,3.45,13.35,3.13,5.53
2014-08-20 19:20:00,0,7327,61,3.80,0,0,0,0,7143,7840,186,7264,61,61,0,61,1.75,6.40,1.26,3.85
2014-08-20 19:30:00,0,7659,61,3.15,0,0,0,0,7455,7910,136,7650,61,61,0,61,1.50,4.75,0.96,2.95
2014-08-20 19:40:00,0,7967,59,1.56,0,0,0,0,7461,8472,310,7981,52,61,4,61,0.35,3.35,1.00,1.15
2014-08-20 19:50:00,0,8300,56,1.08,0,0,0,0,7851,8726,252,8302,52,61,4,52,0.70,1.85,0.34,0.95
2014-08-20 20:00:00,0,8015,52,1.21,0,0,0,0,7478,8300,230,8062,52,52,0,52,0.75,1.80,0.32,1.18
2014-08-20 20:10:00,0,7627,56,3.04,0,0,0,0,7319,7975,205,7654,52,61,4,56,1.35,5.75,1.28,2.85
2014-08-20 20:20:00,0,7122,56,2.00,0,0,0,0,5789,8587,785,7286,52,61,4,52,1.20,3.25,0.54,2.00
2014-08-20 20:30:00,0,7535,52,1.18,0,0,0,0,7050,8208,383,7558,52,52,0,52,0.55,1.90,0.56,1.08
2014-08-20 20:40:00,0,7908,55,3.05,0,0,0,0,6533,9095,771,8029,52,61,4,52,0.55,6.60,2.01,2.38
2014-08-20 20:50:00,0,6848,61,5.76,0,0,0,0,6360,7728,489,6656,61,62,0,61,1.25,10.30,2.68,5.62
2014-08-20 21:00:00,0,6596,53,2.06,0,0,0,0,3327,8272,1678,7466,52,61,3,52,0.05,6.30,2.30,0.82
2014-08-20 21:10:00,0,3234,59,7.96,0,0,0,0,2842,3578,242,3296,52,62,4,61,1.75,24.00,7.14,5.38
2014-08-20 21:20:00,0,4426,57,1.57,0,0,0,0,3796,5165,479,4616,52,61,4,61,0.35,3.65,1.06,1.25
2014-08-20 21:30:00,0,5749,56,9.35,0,0,0,0,4363,7362,1207,5416,52,63,5,52,0.00,53.10,16.13,1.15
2014-08-20 21:40:00,0,7598,61,9.49,0,0,0,0,5706,11733,1821,7090,61,62,0,61,1.05,31.80,11.02,3.97
2014-08-20 21:50:00,0,12538,58,0.70,0,0,0,0,5120,27768,6528,10076,51,61,5,61,0.00,3.05,0.92,0.33
2014-08-20 22:00:00,0,48146,5,0.00,0,0,0,0,38822,50000,3497,50000,0,51,15,0,0.00,0.00,0.00,0.00
2014-08-20 22:10:00,0,48123,0,0.00,0,0,0,0,41836,50000,2612,49418,0,0,0,0,0.00,0.00,0.00,0.00
2014-08-20 22:20:00,0,20362,22,0.12,0,0,0,0,12269,33630,6196,18375,0,61,28,0,0.00,0.40,0.16,0.00
2014-08-20 22:30:00,1,18990,54,1.70,0,2,1,0,12424,25127,4232,18281,51,61,4,52,0.20,2.90,0.89,2.02
2014-08-20 22:40:00,2,48041,26,0.04,0,2,1,2,38033,50000,3573,50000,0,52,26,26,0.00,0.35,0.10,0.00
2014-08-20 22:50:00,2,49564,0,0.00,2,2,0,2,47079,50000,933,50000,0,0,0,0,0.00,0.00,0.00,0.00
2014-08-20 23:00:00,1,50000,0,0.00,0,2,1,0,50000,50000,0,50000,0,0,0,0,0.00,0.00,0.00,0.00
2014-08-20 23:10:00,0,50000,0,0.00,0,0,0,0,50000,50000,0,50000,0,0,0,0,0.00,0.00,0.00,0.00
2014-08-20 23:20:00,1,31510,43,1.75,0,2,1,0,12577,50000,13595,27207,0,61,28,61,0.00,6.00,1.95,1.08
2014-08-20 23:30:00,2,30618,50,0.51,2,2,0,2,21604,44005,6545,28548,0,61,17,51,0.00,1.35,0.51,0.25
2014-08-20 23:40:00,2,44068,51,0.17,2,2,0,2,38065,50000,4133,42528,51,51,0,51,0.00,0.55,0.15,0.17
2014-08-20 23:50:00,2,49921,0,0.00,2,2,0,2,49577,50000,159,50000,0,0,0,0,0.00,0.00,0.00,0.00
